KF0AIT Weather Reports


time (UTC)temp
F
wind
direction
speed
knots
gust
knots
rain 1hr
in
rain 24hr
in
rain mn
in
humidity
%
barometer
mb
20260903180003 82 0 0.0 0.0 0.00 0.00 0.00 66 1001.8
20260903175403 82 127 0.0 1.7 0.00 0.00 0.00 67 1001.8
20260903174503 82 0 0.0 0.0 0.00 0.00 0.00 67 1002.9
20260903173624 80 0 0.0 0.0 0.00 0.00 0.00 69 1002.9
20260903172724 80 0 0.0 0.0 0.00 0.00 0.00 69 1002.9
20260903171803 80 0 0.0 0.0 0.00 0.00 0.00 69 1002.9
20260903170903 80 0 0.0 0.0 0.00 0.00 0.00 70 1001.8
20260903170003 80 157 0.0 0.9 0.00 0.00 0.00 71 1003.9
20260903165403 79 157 0.0 0.9 0.00 0.00 0.00 71 1003.9
20260903164503 79 0 0.0 0.0 0.00 0.00 0.00 71 1002.9
20260903163603 78 0 0.0 0.0 0.00 0.00 0.00 71 1002.9
20260903162703 78 0 0.0 0.0 0.00 0.00 0.00 70 1002.9
20260903161803 79 0 0.0 0.0 0.00 0.00 0.00 70 1002.9
20260903160903 79 0 0.0 0.0 0.00 0.00 0.00 70 1002.9
20260903160003 78 157 0.0 0.9 0.00 0.00 0.00 72 1002.9
20260903155403 78 157 0.0 0.9 0.00 0.00 0.00 71 1002.9
20260903154504 78 0 0.0 0.0 0.00 0.00 0.00 72 1002.9
20260903153603 78 0 0.0 0.0 0.00 0.00 0.00 73 1002.9
20260903152703 77 0 0.0 0.0 0.00 0.00 0.00 74 1002.9
20260903151803 76 157 0.0 0.9 0.00 0.00 0.00 74 1002.9
20260903150903 76 157 0.0 0.9 0.00 0.00 0.00 75 1002.9
20260903150003 76 157 0.0 0.9 0.00 0.00 0.00 75 1002.9
20260903145403 76 157 0.0 1.7 0.00 0.00 0.00 75 1002.9
20260903144503 75 152 0.0 1.7 0.00 0.00 0.00 76 1002.9
20260903143603 75 157 0.0 0.9 0.00 0.00 0.00 77 1002.9
20260903142724 74 157 0.0 0.9 0.00 0.00 0.00 78 1002.9
20260903141803 74 157 0.0 1.7 0.00 0.00 0.00 78 1002.9
20260903140903 74 157 0.9 0.9 0.00 0.00 0.00 78 1002.9
20260903140003 73 0 0.0 0.0 0.00 0.00 0.00 79 1003.9
20260903135403 73 0 0.0 0.0 0.00 0.00 0.00 79 1003.9
20260903134503 73 0 0.0 0.0 0.00 0.00 0.00 79 1003.9
20260903133603 73 157 0.0 1.7 0.00 0.00 0.00 79 1003.9
20260903132703 73 0 0.0 0.0 0.00 0.00 0.00 80 1002.9
20260903131803 72 0 0.0 0.0 0.00 0.00 0.00 80 1002.9
20260903130924 72 0 0.0 0.0 0.00 0.00 0.00 80 1002.9
20260903130003 72 0 0.0 0.0 0.00 0.00 0.00 80 1002.9
20260903125403 72 0 0.0 0.0 0.00 0.00 0.00 80 1002.9
20260903124503 72 135 0.0 0.9 0.00 0.00 0.00 80 1002.9
20260903123603 72 0 0.0 0.0 0.00 0.00 0.00 80 1002.9
20260903122703 72 0 0.0 0.0 0.00 0.00 0.00 80 1002.9
20260903121803 72 0 0.0 0.0 0.00 0.00 0.00 81 1002.9
20260903120903 71 0 0.0 0.0 0.00 0.00 0.00 81 1002.9
20260903120004 71 0 0.0 0.0 0.00 0.00 0.00 81 1002.9
20260903115403 71 0 0.0 0.0 0.00 0.00 0.00 81 1002.9
20260903114503 71 0 0.0 0.0 0.00 0.00 0.00 81 1002.9
20260903113624 71 0 0.0 0.0 0.00 0.00 0.00 81 1002.9
20260903112703 72 0 0.0 0.0 0.00 0.00 0.00 81 1002.9
20260903111803 72 0 0.0 0.0 0.00 0.00 0.00 81 1002.9
20260903110903 72 0 0.0 0.0 0.00 0.00 0.00 81 1002.9
20260903110024 72 0 0.0 0.0 0.00 0.00 0.00 81 1002.9
20260903105403 72 135 0.0 0.9 0.00 0.00 0.00 81 1002.9
20260903104503 72 0 0.0 0.0 0.00 0.00 0.00 81 1002.9
20260903103603 72 135 0.0 0.9 0.00 0.00 0.00 82 1002.9
20260903102703 72 0 0.0 0.0 0.00 0.00 0.00 83 1002.9
20260903101824 72 0 0.0 0.0 0.00 0.00 0.00 83 1002.9
20260903100903 72 0 0.0 0.0 0.00 0.00 0.00 84 1002.9
20260903100003 72 0 0.0 0.0 0.00 0.00 0.00 84 1002.9
20260903095424 72 0 0.0 0.0 0.00 0.00 0.00 84 1002.9
20260903094524 72 0 0.0 0.0 0.00 0.00 0.00 85 1002.9
20260903093603 72 0 0.0 0.0 0.00 0.00 0.00 85 1002.9
20260903091803 72 0 0.0 0.0 0.00 0.00 0.00 86 1002.9
20260903090903 72 0 0.0 0.0 0.00 0.00 0.00 86 1002.9
20260903090003 72 0 0.0 0.0 0.00 0.00 0.00 86 1002.9
20260903085424 72 0 0.0 0.0 0.00 0.00 0.00 86 1002.9
20260903084524 72 0 0.0 0.0 0.00 0.00 0.00 86 1002.9
20260903083624 72 0 0.0 0.0 0.00 0.00 0.00 86 1002.9
20260903082703 72 0 0.0 0.0 0.00 0.00 0.00 86 1002.9
20260903081803 72 0 0.0 0.0 0.00 0.00 0.00 86 1002.9
20260903080903 72 0 0.0 0.0 0.00 0.00 0.00 86 1002.9
20260903080003 72 0 0.0 0.0 0.00 0.00 0.00 86 1002.9
20260903075403 72 0 0.0 0.0 0.00 0.00 0.00 86 1003.9
20260903074503 72 0 0.0 0.0 0.00 0.00 0.00 86 1003.9
20260903073603 72 0 0.0 0.0 0.00 0.00 0.00 85 1003.9
20260903072724 72 0 0.0 0.0 0.00 0.00 0.00 85 1003.9
20260903071803 72 0 0.0 0.0 0.00 0.00 0.00 84 1003.9
20260903070924 72 0 0.0 0.0 0.00 0.00 0.00 84 1003.9
20260903070003 72 0 0.0 0.0 0.00 0.00 0.00 83 1003.9
20260903065424 72 0 0.0 0.0 0.00 0.00 0.00 83 1003.9
20260903064503 72 0 0.0 0.0 0.00 0.00 0.00 82 1003.9
20260903063603 72 0 0.0 0.0 0.00 0.00 0.00 82 1003.9
20260903062703 73 0 0.0 0.0 0.00 0.00 0.00 81 1003.9
20260903061824 73 0 0.0 0.0 0.00 0.00 0.00 81 1003.9
20260903060903 73 0 0.0 0.0 0.00 0.00 0.00 81 1003.9
20260903060003 73 0 0.0 0.0 0.00 0.00 0.00 81 1003.9
20260903055403 73 0 0.0 0.0 0.00 0.00 0.00 81 1003.9
20260903054503 73 0 0.0 0.0 0.00 0.00 0.00 80 1003.9
20260903053603 73 0 0.0 0.0 0.00 0.00 0.00 80 1003.9
20260903052703 73 0 0.0 0.0 0.00 0.00 0.00 79 1003.9
20260903051824 74 0 0.0 0.0 0.00 0.00 0.00 79 1003.9
20260903050924 74 0 0.0 0.0 0.00 0.00 0.00 79 1005.0
20260903050003 74 0 0.0 0.0 0.00 0.00 0.00 79 1005.0
20260903045403 74 0 0.0 0.0 0.00 0.00 0.00 79 1005.0
20260903044524 74 0 0.0 0.0 0.00 0.00 0.00 78 1005.0
20260903043603 74 0 0.0 0.0 0.00 0.00 0.00 78 1005.0
20260903042703 74 135 0.0 0.9 0.00 0.00 0.00 78 1005.0
20260903041824 75 0 0.0 0.0 0.00 0.00 0.00 77 1005.0
20260903040924 75 0 0.0 0.0 0.00 0.00 0.00 76 1005.0
20260903040003 75 0 0.0 0.0 0.00 0.00 0.00 76 1005.0
20260903035403 75 0 0.0 0.0 0.00 0.00 0.00 75 1005.0
20260903034524 76 0 0.0 0.0 0.00 0.00 0.00 75 1005.0
20260903033603 76 0 0.0 0.0 0.00 0.00 0.00 74 1005.0
20260903032703 76 0 0.0 0.0 0.00 0.00 0.00 73 1005.0
20260903031803 76 0 0.0 0.0 0.00 0.00 0.00 73 1005.0
20260903030903 78 0 0.0 0.0 0.00 0.00 0.00 70 1005.0
20260903030004 78 0 0.0 0.0 0.00 0.00 0.00 70 1005.0
20260903025403 78 0 0.0 0.0 0.00 0.00 0.00 70 1005.0
20260903024503 78 0 0.0 0.0 0.00 0.00 0.00 70 1005.0
20260903023603 78 0 0.0 0.0 0.00 0.00 0.00 69 1005.0
20260903022703 80 0 0.0 0.0 0.00 0.00 0.00 67 1005.0
20260903021803 80 0 0.0 0.0 0.00 0.00 0.00 67 1005.0
20260903020903 80 0 0.0 0.0 0.00 0.00 0.00 67 1005.0
20260903020003 80 0 0.0 0.0 0.00 0.00 0.00 67 1005.0
20260903015424 80 0 0.0 0.0 0.00 0.00 0.00 67 1005.0
20260903014505 80 0 0.0 0.0 0.00 0.00 0.00 67 1005.0
20260903013603 80 0 0.0 0.0 0.00 0.00 0.00 65 1005.0
20260903012703 81 0 0.0 0.0 0.00 0.00 0.00 64 1005.0
20260903011803 81 0 0.0 0.0 0.00 0.00 0.00 64 1005.0
20260903010903 82 0 0.0 0.0 0.00 0.00 0.00 62 1003.9
20260903010003 82 0 0.0 0.0 0.00 0.00 0.00 62 1003.9
20260903005403 82 0 0.0 0.0 0.00 0.00 0.00 62 1003.9
20260903004524 83 157 0.0 0.9 0.00 0.00 0.00 61 1003.9
20260903003603 83 0 0.0 0.0 0.00 0.00 0.00 60 1003.9
20260903002703 84 0 0.0 0.0 0.00 0.00 0.00 57 1003.9
20260903001824 84 0 0.0 0.0 0.00 0.00 0.00 57 1003.9
20260903000903 84 157 0.0 0.9 0.00 0.00 0.00 57 1003.9
20260903000003 84 157 0.0 0.9 0.00 0.00 0.00 57 1003.9
20260902235403 85 0 0.0 0.0 0.00 0.00 0.00 57 1003.9
20260902234524 85 146 0.0 0.9 0.00 0.00 0.00 55 1003.9
20260902233603 85 0 0.0 0.0 0.00 0.00 0.00 54 1003.9
20260902232703 85 0 0.0 0.0 0.00 0.00 0.00 54 1003.9
20260902231803 85 0 0.0 0.0 0.00 0.00 0.00 54 1003.9
20260902230903 86 157 0.0 1.7 0.00 0.00 0.00 54 1003.9
20260902230003 86 157 0.0 0.9 0.00 0.00 0.00 54 1003.9
20260902225403 86 0 0.0 0.0 0.00 0.00 0.00 54 1003.9
20260902224524 86 0 0.0 0.0 0.00 0.00 0.00 54 1003.9
20260902223603 86 0 0.0 0.0 0.00 0.00 0.00 54 1003.9
20260902222703 86 0 0.0 0.0 0.00 0.00 0.00 54 1003.9
20260902221803 86 0 0.0 0.0 0.00 0.00 0.00 55 1003.9
20260902220903 86 0 0.0 0.0 0.00 0.00 0.00 54 1003.9
20260902220003 86 0 0.0 0.0 0.00 0.00 0.00 55 1003.9
20260902215403 86 0 0.0 0.0 0.00 0.00 0.00 53 1003.9
20260902214503 86 0 0.0 0.0 0.00 0.00 0.00 57 1003.9
20260902213603 86 0 0.0 0.0 0.00 0.00 0.00 57 1003.9
20260902212724 86 0 0.0 0.0 0.00 0.00 0.00 57 1003.9
20260902211803 86 0 0.0 0.0 0.00 0.00 0.00 56 1003.9
20260902210903 86 0 0.0 0.0 0.00 0.00 0.00 57 1005.0
20260902210024 85 0 0.0 0.0 0.00 0.00 0.00 57 1005.0
20260902205403 85 157 0.0 1.7 0.00 0.00 0.00 57 1005.0
20260902204503 85 157 1.7 1.7 0.00 0.00 0.00 57 1005.0
20260902203603 85 0 0.0 0.0 0.00 0.00 0.00 59 1005.0
20260902202703 85 0 0.0 0.0 0.00 0.00 0.00 58 1005.0
20260902201804 85 67 0.0 0.9 0.00 0.00 0.00 60 1005.0
20260902200903 84 0 0.0 0.0 0.00 0.00 0.00 60 1005.0
20260902200003 84 78 0.0 1.7 0.00 0.00 0.00 61 1005.0
20260902195403 84 85 0.0 1.7 0.00 0.00 0.00 62 1005.0
20260902194524 84 157 1.7 1.7 0.00 0.00 0.00 62 1005.0
20260902193603 83 0 0.0 0.0 0.00 0.00 0.00 64 1005.0
20260902192703 83 157 0.0 0.9 0.00 0.00 0.00 64 1006.0
20260902191803 83 114 0.0 1.7 0.00 0.00 0.00 64 1006.0
20260902190903 83 139 0.0 0.9 0.00 0.00 0.00 65 1006.0
20260902190003 83 139 0.0 0.9 0.00 0.00 0.00 65 1006.0
20260902185403 82 157 0.0 2.6 0.00 0.00 0.00 66 1006.0
20260902184524 82 157 0.0 2.6 0.00 0.00 0.00 65 1006.0
20260902183603 81 137 0.0 3.5 0.00 0.00 0.00 65 1007.1
20260902182703 81 135 0.0 1.7 0.00 0.00 0.00 65 1007.1
20260902181803 80 140 0.0 3.5 0.00 0.00 0.00 66 1007.1
20260902180903 80 82 0.9 2.6 0.00 0.00 0.00 66 1007.1